Wind_Speed
22 23 24 25 26 26 27 28 28 29 29 30 31 32 33 34 35 37 39 40 42 43 44 45 46 48 49 51 52 54 55 55 57 59 59 59 60 60 60 60 61 61 62
23 24 25 26 27 28 29 29 30 31 31 32 32 33 34 35 36 38 39 41 42 43 45 46 47 48 50 51 53 54 56 57 58 60 61 61 60 60 61 62 63 63 64
24 25 26 28 29 30 32 32 33 33 33 33 34 34 35 36 37 38 39 40 41 43 44 46 48 49 51 52 54 55 57 58 59 61 63 63 62 61 62 63 64 65 65
26 27 29 30 31 33 33 34 34 34 34 34 34 34 35 36 37 38 40 41 43 44 45 47 49 50 52 53 55 57 58 60 61 62 64 65 66 66 65 63 65 66 67
28 29 30 31 32 32 32 32 31 31 32 32 32 33 34 35 36 38 39 40 41 43 44 46 47 49 51 53 55 57 59 61 63 64 66 67 68 69 70 67 66 67 68
29 30 30 31 31 31 30 30 30 30 31 32 32 33 34 35 36 37 38 40 41 43 45 47 49 50 52 54 56 58 60 61 63 65 67 68 69 70 72 72 70 70 69
30 30 30 31 30 30 30 30 31 31 31 32 33 33 35 36 37 38 40 42 44 46 48 50 51 53 55 57 58 60 61 63 65 66 68 69 71 72 74 74 73 72 71
29 30 30 30 30 30 30 30 31 31 32 32 33 35 36 38 40 42 44 45 47 49 51 54 55 57 59 61 62 64 65 66 67 68 70 71 72 73 74 75 76 75 73
29 29 30 30 31 31 31 32 32 33 33 35 36 38 40 42 44 46 48 50 52 54 56 59 61 62 64 65 67 68 69 70 71 72 73 73 74 75 76 76 77 77 75
30 30 31 32 32 32 33 34 35 36 38 39 41 43 45 47 49 52 54 56 58 60 62 64 66 68 69 71 72 73 74 75 75 76 76 76 76 77 78 78 78 79 78
32 32 33 34 34 35 36 37 39 40 42 44 46 48 51 53 55 58 60 62 64 66 68 70 72 73 75 76 77 78 78 79 79 79 79 79 79 80 79 79 79 79 78
34 35 35 36 37 38 39 41 42 44 47 49 51 53 56 58 61 63 65 68 70 72 74 76 77 78 79 80 81 82 82 82 82 81 82 81 82 81 81 80 79 78 78
36 37 38 39 40 41 43 45 47 49 51 54 56 59 61 64 66 68 71 73 75 77 79 80 81 82 83 84 84 85 85 84 84 83 83 82 82 81 80 79 78 77 77
38 40 40 42 43 45 47 49 51 54 56 59 61 64 67 69 71 74 76 78 80 81 82 83 84 85 86 86 86 86 86 85 84 83 82 81 80 79 78 77 75 74 73
41 42 43 45 47 49 51 53 56 58 61 64 66 69 71 73 76 78 80 81 82 84 85 86 86 86 86 85 85 84 83 82 80 78 77 76 74 73 72 71 70 69 69
43 45 46 48 50 53 55 57 60 63 65 68 70 73 75 78 79 81 82 83 85 85 86 86 86 85 84 83 81 80 77 75 72 70 69 68 67 67 67 67 66 66 65
45 47 49 51 54 56 59 61 64 67 70 72 75 77 79 81 82 84 85 85 86 86 85 84 83 81 79 76 73 71 69 67 65 63 62 62 61 62 62 62 62 61 61
48 50 52 54 57 60 62 65 68 71 74 76 78 80 82 83 85 85 86 86 86 85 83 80 77 74 70 67 65 63 61 59 57 56 56 55 55 55 56 56 56 56 57
51 53 55 58 60 63 66 69 72 75 77 79 81 82 84 85 86 86 86 85 84 81 77 73 70 66 62 60 58 57 56 53 51 50 50 50 50 50 51 51 52 52 52
54 56 58 61 64 67 70 73 75 78 80 81 82 84 85 86 86 85 84 82 79 75 70 65 62 59 56 54 53 53 51 48 46 45 46 47 47 46 47 47 47 47 48
57 59 62 65 68 71 74 76 78 80 81 83 84 85 85 85 84 82 79 76 72 67 63 59 56 54 51 50 49 48 46 44 43 42 42 42 43 43 43 43 43 43 44
60 63 65 68 71 74 76 78 80 81 83 84 84 84 83 81 79 76 72 68 65 60 56 54 50 48 47 46 45 43 42 42 41 39 38 38 38 38 38 39 40 40 41
63 66 68 71 73 76 78 80 81 83 83 83 82 81 79 75 72 69 65 61 58 55 52 49 46 44 43 42 41 40 39 39 38 37 36 35 35 36 36 37 37 38 39
66 69 71 73 74 76 78 81 82 83 83 82 79 77 73 69 65 62 59 56 54 51 49 45 43 41 39 38 38 38 37 36 36 35 35 34 34 34 34 35 36 37 38
69 71 73 74 76 78 79 81 82 82 81 78 75 71 67 64 60 56 54 52 50 49 46 44 42 40 37 36 37 36 34 34 34 33 33 33 33 33 34 35 36 37 38
71 72 74 76 77 79 80 80 81 79 77 73 69 65 62 58 55 52 49 47 47 45 44 43 42 40 39 37 35 34 33 33 33 33 32 32 33 33 33 34 35 37 38
Wind_Direction
286 286 287 287 287 287 286 286 285 285 284 285 285 284 283 283 282 281 281 281 281 281 281 280 280 280 279 279 279 279 279 279 279 279 279 278 279 279 280 280 280 280 281
285 286 287 288 288 288 287 287 287 287 287 287 287 286 285 284 283 283 284 284 284 284 284 284 283 283 282 282 282 281 281 281 280 280 280 279 279 280 279 279 279 279 280
286 287 287 288 288 288 288 289 289 290 290 289 289 288 288 287 286 286 286 285 285 285 285 285 285 285 284 284 284 283 283 282 282 282 281 281 281 278 278 278 279 279 279
287 288 287 287 288 289 289 290 291 291 291 291 291 291 290 289 288 288 287 287 287 287 286 286 285 285 285 285 284 284 284 283 283 282 282 283 282 281 280 278 278 278 278
287 287 288 288 289 289 290 291 291 292 293 293 293 292 292 291 291 290 289 289 289 288 288 287 287 286 286 285 284 284 284 283 283 283 283 283 283 283 283 281 278 277 277
286 287 288 289 289 290 290 291 292 294 294 295 295 294 294 294 293 293 292 292 291 291 290 290 289 288 288 287 286 285 285 284 283 283 283 283 282 282 282 282 281 279 278
287 288 289 290 290 290 291 292 294 295 296 296 297 296 296 296 295 295 294 294 294 293 293 293 292 291 290 289 288 287 287 286 285 284 283 283 282 282 281 281 281 279 278
288 288 289 290 290 291 292 294 295 297 298 298 298 298 298 297 297 296 296 295 295 294 294 293 293 292 292 291 290 289 288 287 286 285 284 283 282 281 281 280 280 279 278
288 288 289 289 290 293 294 295 296 297 298 298 298 298 298 298 297 297 297 296 295 295 294 294 293 292 291 290 290 289 288 286 286 285 283 282 282 281 280 279 279 278 278
288 288 288 289 292 294 295 296 297 298 298 299 299 299 299 299 298 298 298 297 296 296 295 294 293 292 291 291 290 289 288 286 285 284 283 282 281 280 279 279 278 277 277
289 288 289 291 293 295 297 298 298 299 299 300 300 300 300 300 299 299 299 298 297 296 296 295 294 293 292 290 289 288 287 286 285 284 282 281 280 279 279 278 277 277 277
288 288 290 292 294 296 298 298 299 299 300 300 300 300 300 300 300 300 299 299 298 297 296 295 294 293 292 291 290 289 288 286 285 284 282 281 279 279 278 277 276 276 275
287 289 291 293 296 297 298 299 299 300 300 300 300 301 301 301 301 300 300 299 298 298 297 296 295 294 293 292 291 289 288 287 285 283 282 280 279 278 277 276 276 275 274
288 291 293 295 296 298 299 300 300 300 301 301 301 302 302 302 301 301 301 300 299 298 298 297 296 295 294 293 292 290 288 287 285 283 281 279 278 277 277 276 276 275 275
290 292 294 295 297 298 299 300 301 301 302 302 303 303 303 302 302 302 302 301 300 300 299 299 298 297 296 294 293 291 289 287 285 284 282 281 279 278 277 276 276 275 275
291 293 295 296 298 299 300 301 302 302 303 303 304 304 304 304 303 303 303 302 302 302 301 301 300 299 297 295 294 292 290 289 287 285 283 281 280 278 277 276 275 275 275
292 293 295 297 298 300 301 302 303 303 304 304 305 305 305 305 304 304 304 304 304 304 303 302 301 300 298 296 295 294 292 291 289 287 284 283 281 279 278 277 276 275 275
292 294 296 298 300 301 302 303 304 305 305 306 306 306 306 306 306 306 306 306 305 305 304 303 302 301 299 298 296 295 294 293 291 289 287 286 284 282 280 279 278 277 277
294 296 298 299 301 302 303 304 305 306 307 307 308 308 308 308 308 308 307 307 306 306 305 304 303 302 301 299 298 297 297 295 293 291 289 288 286 284 282 280 279 278 277
296 298 300 301 302 303 304 306 307 307 308 309 309 309 309 309 309 309 308 308 308 307 306 305 304 304 303 301 301 300 299 297 295 293 291 290 288 286 284 282 281 279 277
298 299 301 303 304 305 306 307 308 309 310 310 310 310 311 311 310 310 309 309 308 308 307 307 306 306 305 304 303 302 301 299 298 296 294 292 290 288 286 285 284 282 279
299 301 303 304 306 306 307 309 309 310 310 311 311 311 311 311 311 311 310 310 309 309 309 308 307 307 307 306 305 304 303 302 301 300 297 295 293 291 289 288 286 284 282
301 303 304 306 307 308 309 310 310 311 311 312 312 312 312 311 311 311 311 311 311 310 310 310 309 309 308 308 307 307 305 304 303 302 300 297 295 293 292 291 289 288 286
303 304 306 307 309 309 310 311 311 312 312 312 312 312 312 312 311 311 311 312 311 311 312 311 311 311 310 309 308 308 307 306 305 304 302 300 298 296 293 292 292 291 290
305 306 307 308 309 310 311 312 312 312 312 313 312 312 312 312 312 311 312 312 312 312 312 312 312 312 311 311 310 310 308 306 304 303 303 301 300 298 296 295 294 294 293
306 307 308 309 310 311 311 312 312 312 312 313 313 313 313 313 312 312 312 312 312 313 313 313 313 314 314 313 313 312 310 309 307 306 305 304 303 301 299 297 296 296 295
Height
5812 5810 5809 5807 5806 5804 5802 5801 5799 5798 5796 5794 5793 5791 5789 5787 5785 5783 5781 5779 5777 5775 5774 5772 5771 5768 5767 5765 5763 5761 5759 5758 5755 5753 5753 5752 5750 5748 5747 5745 5743 5741 5738
5807 5806 5804 5802 5801 5799 5797 5795 5793 5791 5790 5788 5786 5784 5782 5780 5777 5775 5773 5771 5769 5766 5764 5762 5760 5758 5755 5753 5751 5748 5746 5744 5741 5738 5736 5736 5737 5735 5732 5730 5728 5726 5723
5803 5801 5799 5797 5795 5793 5791 5789 5786 5784 5782 5780 5778 5776 5774 5772 5769 5767 5765 5762 5759 5757 5754 5752 5749 5746 5744 5741 5738 5735 5732 5730 5727 5723 5720 5719 5721 5720 5718 5715 5713 5710 5708
5798 5796 5794 5791 5789 5787 5784 5782 5780 5777 5775 5773 5771 5768 5766 5764 5761 5758 5756 5753 5750 5747 5744 5741 5738 5735 5732 5729 5726 5722 5718 5715 5712 5709 5705 5702 5701 5699 5700 5702 5699 5695 5692
5792 5790 5787 5785 5783 5780 5778 5775 5773 5770 5768 5765 5763 5760 5758 5755 5752 5750 5747 5744 5740 5737 5734 5730 5727 5724 5720 5717 5713 5708 5704 5701 5697 5693 5690 5686 5683 5679 5677 5680 5682 5678 5676
5785 5783 5781 5778 5775 5773 5771 5768 5766 5764 5761 5758 5756 5753 5750 5747 5744 5741 5738 5734 5731 5727 5723 5719 5716 5712 5708 5704 5699 5694 5690 5686 5682 5677 5673 5669 5666 5663 5658 5657 5659 5658 5658
5778 5776 5773 5771 5768 5766 5764 5761 5759 5757 5754 5751 5748 5745 5742 5739 5735 5732 5728 5725 5721 5716 5712 5707 5703 5698 5694 5689 5684 5679 5675 5670 5665 5661 5656 5651 5648 5644 5640 5636 5636 5635 5636
5771 5769 5766 5764 5761 5759 5757 5754 5752 5749 5746 5743 5740 5736 5733 5730 5726 5722 5718 5714 5710 5705 5700 5694 5689 5684 5679 5673 5668 5663 5658 5652 5647 5643 5637 5633 5629 5624 5620 5616 5613 5612 5614
5764 5762 5759 5756 5754 5752 5749 5747 5744 5741 5738 5735 5731 5728 5724 5720 5716 5711 5707 5702 5697 5692 5686 5680 5674 5669 5663 5656 5650 5645 5640 5634 5629 5623 5617 5613 5608 5603 5599 5594 5590 5588 5590
5757 5754 5752 5749 5747 5744 5741 5739 5736 5732 5729 5726 5722 5718 5713 5708 5704 5699 5693 5688 5682 5676 5670 5664 5657 5651 5644 5638 5631 5626 5619 5613 5608 5602 5596 5592 5586 5581 5576 5572 5568 5564 5563
5750 5747 5744 5742 5739 5736 5733 5730 5727 5723 5719 5715 5711 5706 5701 5696 5690 5684 5678 5672 5666 5659 5652 5645 5638 5631 5624 5617 5610 5604 5597 5591 5585 5579 5573 5569 5562 5557 5553 5548 5545 5542 5539
5742 5739 5736 5733 5730 5727 5724 5720 5717 5712 5708 5703 5698 5693 5687 5682 5675 5669 5662 5655 5648 5640 5632 5625 5617 5609 5602 5594 5586 5579 5573 5566 5561 5554 5548 5544 5537 5533 5529 5524 5522 5519 5516
5733 5730 5727 5724 5721 5718 5714 5710 5706 5701 5696 5691 5685 5679 5673 5666 5659 5652 5644 5636 5628 5620 5611 5603 5594 5586 5578 5569 5561 5553 5547 5540 5534 5528 5522 5517 5511 5508 5504 5500 5498 5496 5493
5724 5721 5718 5715 5711 5708 5703 5699 5694 5689 5683 5677 5671 5664 5657 5650 5642 5634 5625 5616 5607 5598 5589 5580 5571 5561 5552 5543 5535 5526 5520 5514 5507 5501 5495 5491 5485 5482 5479 5476 5475 5472 5471
5715 5712 5709 5705 5701 5697 5692 5687 5681 5675 5669 5662 5655 5648 5640 5631 5623 5614 5604 5595 5585 5575 5565 5556 5546 5536 5526 5516 5507 5499 5493 5486 5481 5475 5470 5465 5461 5458 5455 5453 5452 5450 5449
5705 5702 5698 5694 5690 5685 5680 5674 5668 5661 5654 5646 5638 5630 5622 5612 5603 5593 5583 5573 5562 5552 5541 5531 5520 5511 5500 5490 5480 5472 5466 5461 5456 5452 5447 5442 5438 5435 5432 5431 5430 5429 5428
5695 5692 5688 5683 5678 5672 5667 5660 5653 5646 5638 5629 5621 5611 5602 5592 5582 5571 5560 5549 5539 5529 5518 5507 5495 5486 5476 5465 5457 5449 5442 5439 5434 5429 5425 5422 5419 5415 5413 5411 5410 5409 5409
5685 5681 5676 5671 5665 5659 5653 5645 5637 5629 5621 5611 5602 5591 5581 5571 5560 5549 5538 5526 5515 5505 5494 5483 5472 5463 5455 5444 5436 5429 5424 5419 5415 5410 5406 5403 5401 5397 5394 5393 5392 5392 5391
5673 5669 5664 5658 5651 5645 5638 5630 5621 5612 5603 5593 5582 5571 5559 5549 5538 5527 5515 5503 5492 5482 5471 5461 5451 5443 5436 5427 5419 5412 5407 5403 5399 5394 5390 5386 5384 5381 5378 5376 5376 5376 5375
5661 5656 5650 5644 5637 5629 5621 5613 5604 5594 5584 5574 5563 5551 5538 5527 5516 5505 5493 5481 5470 5460 5451 5443 5433 5425 5418 5411 5404 5397 5392 5388 5384 5380 5376 5372 5368 5366 5363 5361 5360 5359 5359
5648 5642 5636 5629 5621 5612 5604 5595 5586 5575 5565 5554 5543 5531 5518 5506 5494 5483 5472 5461 5451 5442 5434 5426 5419 5411 5403 5397 5390 5384 5378 5374 5370 5367 5363 5359 5355 5352 5349 5347 5345 5344 5343
5634 5628 5621 5613 5604 5595 5586 5578 5568 5558 5547 5536 5524 5512 5499 5486 5474 5463 5454 5443 5433 5426 5418 5412 5406 5398 5391 5384 5378 5372 5366 5361 5357 5354 5350 5346 5343 5340 5337 5334 5332 5330 5329
5620 5613 5605 5597 5588 5577 5567 5558 5549 5538 5527 5516 5504 5493 5481 5469 5457 5446 5437 5429 5420 5411 5405 5398 5392 5387 5381 5374 5367 5361 5356 5350 5346 5342 5339 5335 5332 5329 5326 5323 5320 5318 5316
5604 5596 5589 5580 5571 5561 5550 5539 5529 5519 5508 5497 5486 5475 5464 5454 5444 5433 5423 5415 5407 5399 5393 5386 5381 5376 5370 5364 5358 5352 5346 5341 5336 5332 5329 5325 5321 5318 5315 5313 5310 5307 5304
5587 5580 5571 5563 5554 5543 5532 5521 5510 5499 5489 5479 5469 5458 5448 5438 5430 5422 5412 5403 5396 5387 5381 5375 5370 5365 5360 5355 5348 5342 5337 5332 5328 5323 5320 5316 5312 5309 5305 5302 5299 5296 5293
5571 5563 5554 5545 5536 5526 5515 5503 5492 5481 5471 5462 5452 5443 5433 5425 5416 5409 5403 5394 5386 5378 5371 5364 5359 5354 5349 5344 5339 5333 5328 5323 5319 5315 5311 5307 5303 5299 5295 5292 5289 5285 5281